User: anonymous   Login
Location: Chevoux
(46.3801°N, 4.9476°E)
Time: 11:24:07
(UTC+00:00)
Language:

CSL-04 Debris - Orbit

View from above orbital plane
View from above orbital plane
View from above satellite
View from above satellite

Ground track
Ground track

The orbit data is extracted from the following two-line orbital elements,

1 25733U 99025D   21101.04825438  .00000114  00000-0  79845-4 0  9997
2 25733  98.9164 136.3485 0014828 191.6931 168.3900 14.16449085131893
Epoch (UTC): 11 April 2021 01:09:29
Eccentricity: 0.0014828
inclination: 98.9164°
perigee height: 826 km
apogee height: 848 km
right ascension of ascending node: 136.3485°
argument of perigee: 191.6931°
revolutions per day: 14.16449085
mean anomaly at epoch: 168.3900°
orbit number at epoch: 13189

The dashed part of the orbit path shows where the satellite is in the earth's shadow,  

DLR